Tracking 29487 objects as of 11-Sep-2024
HD Live streaming from Space Station
objects crossing your sky now

TRACE

Track TRACE now!
10-day predictions
TRACE is classified as:


NORAD ID: 25280
Int'l Code: 1998-020A
Perigee: 447.7 km
Apogee: 465.8 km
Inclination: 97.4 °
Period: 93.6 minutes
Semi major axis: 6827 km
RCS: 1.591 m2 (large)
Launch date: April 2, 1998
Source: United States (US)
Launch site: Pegasus launched from Western Range Air Space (WRAS)

Coordinates with SOHO; image the solar corona and transition region at high angular and temporal resolution.
Your satellite tracking list
Your tracking list is empty




NASA's NSSDC Master Catalog

Two Line Element Set (TLE):
1 25280U 98020A   24255.50731977  .00039149  00000-0  10152-2 0  9990
2 25280  97.4482  88.4444 0013277 207.7925 152.2613 15.38817721450784
Source of the keplerian elements: AFSPC